Regional Weather Roundup
Issued by NWS Jackson, KY

Home | Current Version | Previous Version | Text Only | Print | Product List | Glossary Off
Versions: 1 2 3 4 5 6 7 8 9 10 11 12 13 14 15 16 17 18 19 20 21 22 23 24 25 26 27 28 29 30 31 32 33 34 35 36 37 38 39 40 41 42 43 44 45 46 47 48 49 50

000
ASUS43 KJKL 221010
RWRJKL

EAST KENTUCKY HOURLY WEATHER ROUNDUP
NATIONAL WEATHER SERVICE JACKSON KY
600 AM EDT FRI MAY 22 2015

NOTE: "FAIR" INDICATES FEW OR NO CLOUDS BELOW 12,000 FEET WITH
NO SIGNIFICANT WEATHER AND/OR OBSTRUCTIONS TO VISIBILITY.

* THESE REPORTS ARE NOT UNDER NWS QUALITY CONTROL AND MAY NOT
  REPORT WEATHER SUCH AS PRECIPITATION AND FOG.

KYZ079-080-083-085-087-088-110-112-115-119-120-221100
...EASTERN KENTUCKY...

CITY           SKY/WX    TMP DP  RH WIND       PRES   REMARKS
JACKSON        FOG       45  43  93 CALM      30.21R VSB 1/4
LONDON         FOG       42  38  85 CALM      30.22R VSB 1/2
SOMERSET*      FOG       43  43 100 CALM      30.25R VSB 1/4
MONTICELLO*    FOG       43  43 100 CALM      30.26R VSB<1/4
MIDDLESBORO*   CLEAR     43  43  99 CALM      30.23R
HARLAN APT*    CLOUDY    45  45 100 N7        30.22R
BIG SANDY*     FOG       46  46 100 SW3       30.20R VSB 1/4
MOREHEAD APT*  SUNNY     41  39  93 SW8       30.21R FOG
$$

KYZ035-036-041-042-044-050-067-078-099-221100
...CENTRAL KENTUCKY...

CITY           SKY/WX    TMP DP  RH WIND       PRES   REMARKS
MT STERLING*   CLEAR     41  41 100 SW5       30.22R FOG
DANVILLE*      CLEAR     39  39 100 S3        30.23R FOG
RICHMOND*      CLEAR     43  41  93 CALM      30.21R
LEXINGTON      CLEAR     43  41  93 SW6       30.20R
FRANKFORT      CLEAR     44  40  85 CALM      30.19R
$$

KYZ091>093-OHZ055-061-077-WVZ005-015-034-035-042-221100
...SOUTHERN OHIO/WEST VIRGINIA...

CITY           SKY/WX    TMP DP  RH WIND       PRES   REMARKS
COVINGTON      CLEAR     45  42  89 SW6       30.17R
COLUMBUS       CLEAR     43  40  89 CALM      30.11R
DAYTON         CLEAR     45  41  86 SW9       30.13R
WILMINGTON     CLEAR     40  37  89 SW9       30.14R WCI  34
HUNTINGTON     CLEAR     40  40 100 S6        30.17R FOG
CHARLESTON     FOG       44  43  96 S5        30.17R VSB 1/2
PINEVILLE*     CLOUDY    47  47 100 MISG      30.23R FOG
BECKLEY        PTCLDY    41  39  93 SW3       30.17R FOG
BLUEFIELD      PTCLDY    44  40  85 W5        30.17R
$$

VAZ002-007-008-TNZ017-027-036-066-071-221100
...SOUTHWEST VIRGINIA/EAST TENNESSEE...

CITY           SKY/WX    TMP DP  RH WIND       PRES   REMARKS
WISE*          CLEAR     41  41 100 CALM      30.20R FOG
JONESVILLE*    SUNNY     41  41 100 CALM      30.23R FOG
ABINGDON*      CLEAR     44  42  94 CALM      30.19R
BRISTOL        CLEAR     45  42  89 N7        30.20R
KNOXVILLE      PTCLDY    48  45  89 E3        30.19R
OAK RIDGE      CLEAR     47  44  90 CALM      30.21R
CROSSVILLE     CLEAR     44  41  89 E3        30.21R FOG
NASHVILLE      CLEAR     45  43  93 CALM      30.24R
$$

...KEY TO REMARKS...
VSB - VISIBILITY IN MILES
WCI - WIND CHILL INDEX
HX  - HEAT INDEX

$$



USA.gov is the U.S. government's official web portal to all federal, state and local government web resources and services.